RH
95 95 94 92 94 96 96 95 94 95 94 95 95 93 93 94 95 96 95 92 89 78 60 44 34 27 24 23 23 21 18 30 36 26 21 16 12 12 10 9 9 10 10 10 13 11 9 8 7 8 8 8 8 7 7 7 7 7 9 11 9 7 6 5 4 4 5 7 7 6 6 6 7 8 7 7 8 8 8 10 10 10 11 12 16 18 23 29
97 96 94 94 96 98 99 99 97 97 96 94 95 95 93 94 96 98 95 91 88 75 54 40 32 26 24 24 23 22 27 40 39 22 15 11 9 9 8 9 9 10 13 13 12 9 7 6 6 8 8 8 7 6 8 7 7 8 8 8 8 7 6 5 5 6 6 6 7 6 6 6 7 7 7 8 9 9 9 10 9 11 12 12 16 20 25 28
98 98 98 97 97 98 98 96 97 98 97 95 93 95 95 95 98 98 92 86 78 61 45 37 30 26 25 26 23 30 48 49 31 18 13 10 10 12 11 12 13 13 15 15 11 7 6 6 6 8 8 8 6 7 8 7 7 7 7 8 7 5 6 7 6 7 6 6 7 6 6 6 6 7 7 8 9 9 9 10 10 11 12 13 16 20 25 28
99 98 96 97 96 95 95 96 100 98 98 98 95 96 97 97 97 93 88 77 62 48 40 34 28 26 26 27 27 39 59 49 24 14 12 12 13 14 14 14 14 14 16 15 11 8 7 6 7 7 8 7 6 6 7 7 7 6 6 7 6 5 7 7 7 7 6 6 6 6 6 6 6 6 7 7 8 9 7 9 9 10 12 14 17 22 26 28
96 94 93 97 98 97 98 99 99 97 98 99 99 99 95 95 94 89 82 67 52 44 37 31 26 26 27 27 32 48 58 38 17 13 12 13 13 12 13 14 13 15 17 14 9 9 9 8 8 7 8 7 6 6 7 6 7 6 6 6 7 6 6 7 7 7 7 6 6 7 6 6 6 6 7 7 7 8 7 7 8 9 12 15 19 23 25 27
94 95 97 99 100 99 99 98 98 99 100 96 93 94 90 90 89 78 65 53 44 37 31 26 25 27 27 27 35 54 52 25 12 14 13 13 13 13 15 15 14 16 18 13 9 9 8 8 7 8 8 7 7 7 6 6 6 7 6 6 7 7 7 7 7 7 7 7 7 7 6 6 7 7 6 6 7 7 6 7 7 8 11 16 20 24 25 27
98 99 100 100 99 98 99 99 99 98 96 97 87 75 72 69 64 52 39 35 33 27 25 22 25 28 26 28 38 49 40 17 13 15 12 13 14 13 15 16 15 17 18 13 10 9 8 8 7 7 7 7 8 6 6 6 6 7 7 6 7 7 7 7 7 7 7 7 7 7 7 7 7 8 7 7 7 7 7 7 7 9 12 17 21 24 25 25
98 99 99 99 100 99 101 98 97 96 88 86 73 53 49 44 37 31 24 25 23 22 22 21 27 29 28 39 43 37 27 15 16 16 12 15 17 14 16 22 21 20 17 12 10 8 7 7 6 7 7 6 6 6 6 7 6 7 7 7 7 7 7 7 7 7 7 7 7 7 8 8 7 7 8 8 7 7 7 7 8 10 13 18 22 24 24 25
96 100 100 100 100 97 96 89 87 93 80 63 51 40 36 29 23 22 21 21 20 20 20 22 28 26 34 49 42 26 18 13 16 17 14 18 22 21 24 26 20 17 13 10 9 7 7 6 6 6 6 6 6 6 7 7 7 6 6 7 7 7 7 7 7 7 7 7 7 8 8 7 7 8 8 7 6 7 7 7 8 10 13 17 21 24 25 26
99 100 98 98 99 93 92 83 71 70 62 46 34 29 25 21 20 19 20 19 19 19 19 24 26 27 43 49 38 26 15 10 13 16 15 16 20 21 21 18 13 13 11 8 8 7 7 6 5 5 6 6 6 6 6 7 7 6 6 7 7 8 8 7 7 7 7 7 7 7 7 7 7 8 8 6 6 8 7 7 8 10 14 16 19 23 24 26
99 99 99 98 93 81 74 66 53 44 41 35 27 21 20 20 20 19 20 18 18 20 21 26 24 32 49 43 31 23 11 10 11 12 14 12 13 14 13 12 10 12 9 8 8 7 8 7 6 5 6 6 6 7 6 6 7 7 7 8 8 8 8 7 7 8 7 7 7 7 7 7 7 8 7 6 6 7 7 7 8 10 12 14 18 21 22 25
96 98 93 82 70 57 50 46 43 40 35 34 29 23 21 22 22 21 20 18 20 21 22 26 24 39 54 39 24 17 10 13 11 10 12 10 11 11 10 11 11 11 10 9 8 8 9 8 7 6 6 6 6 7 6 6 7 7 8 8 9 8 8 8 7 7 7 7 7 7 8 7 8 7 6 7 7 7 7 8 9 10 12 13 16 19 20 22
90 86 67 53 48 44 42 40 40 40 37 37 36 30 26 25 24 22 22 22 23 23 25 26 28 48 58 32 16 16 13 14 12 11 10 9 10 10 10 11 10 11 11 10 9 10 10 8 7 6 6 6 6 7 6 6 6 7 7 7 8 9 9 7 7 7 7 8 7 8 10 9 7 6 6 8 8 7 8 9 8 10 12 13 16 17 18 20
72 61 46 41 43 40 38 37 37 37 37 38 38 36 33 27 24 25 26 25 25 27 28 25 28 51 54 25 12 16 16 15 13 11 9 9 9 9 10 10 11 12 11 11 11 11 10 8 8 6 6 6 6 7 6 6 6 7 7 7 8 9 9 6 7 8 7 8 7 8 10 9 7 6 7 8 8 8 9 10 9 11 13 13 15 16 16 18
48 43 40 40 39 38 37 35 36 37 39 39 39 38 36 29 26 28 28 27 29 28 27 30 39 52 43 19 14 17 17 17 13 10 9 9 8 8 10 10 12 11 10 11 11 11 10 8 7 7 7 6 6 7 7 7 7 7 8 10 8 8 8 7 7 7 7 8 7 8 10 8 6 6 7 8 8 8 9 11 9 11 14 14 15 15 16 17
38 36 37 38 37 37 35 34 37 40 43 44 44 41 36 32 29 28 28 30 32 29 36 46 45 43 31 16 17 18 17 17 12 10 10 9 8 8 9 10 11 10 11 11 11 11 8 7 8 8 8 7 8 7 8 9 8 8 9 11 10 8 9 9 8 7 7 8 7 8 9 8 7 7 8 8 8 9 9 11 11 13 15 15 15 15 16 16
35 33 34 36 35 33 32 36 41 45 48 49 49 45 38 36 31 28 29 33 37 37 46 46 29 25 24 16 16 17 14 13 10 10 9 9 9 8 9 10 9 10 10 11 12 11 9 10 11 10 10 9 9 9 10 13 12 11 10 11 11 9 10 10 10 9 7 8 8 9 9 8 9 8 9 9 8 9 9 11 12 13 15 15 15 14 15 15
31 30 33 34 32 30 32 38 42 46 50 48 47 45 40 36 32 34 36 38 46 48 43 34 23 23 20 13 15 15 12 10 9 9 9 10 9 9 9 8 9 11 12 12 12 12 10 11 11 12 12 11 11 11 13 14 13 13 12 12 12 11 12 11 11 10 8 9 9 9 10 9 9 8 10 10 9 10 10 12 13 14 15 15 15 14 14 15
28 27 29 31 30 29 32 39 40 43 49 46 45 44 43 42 43 50 49 42 44 41 30 22 19 21 17 13 14 14 13 10 9 9 9 10 9 9 9 9 9 11 15 15 13 13 12 13 14 15 15 14 13 12 13 15 14 15 14 14 14 13 13 11 12 12 10 11 11 10 11 10 10 9 10 11 10 11 11 12 14 15 15 15 15 15 14 15
27 25 26 29 27 27 34 38 35 40 45 50 58 56 48 46 46 46 41 35 30 23 19 14 11 13 14 13 13 14 13 10 9 9 8 9 9 9 9 9 10 13 17 17 15 15 14 17 17 15 17 16 15 16 18 20 19 19 17 16 15 13 12 10 12 15 14 15 13 11 11 10 10 10 10 11 12 12 12 13 15 15 15 14 15 15 15 15
24 23 25 27 24 26 35 34 33 39 38 49 69 59 35 30 33 31 29 26 20 14 16 15 12 13 13 13 13 14 13 10 8 7 8 9 8 9 9 9 12 14 15 17 20 19 16 19 18 18 22 20 19 20 21 21 21 19 17 16 14 13 12 11 15 17 16 18 15 11 13 12 11 11 10 10 12 14 14 14 14 14 14 15 15 14 14 14
22 22 22 24 23 25 32 33 34 36 36 54 66 41 19 24 30 30 29 25 18 14 16 16 14 13 12 14 14 14 14 12 10 7 8 10 8 9 8 9 12 13 15 18 21 19 16 17 18 21 23 21 21 20 20 21 21 20 16 15 15 12 12 14 20 19 15 19 17 11 12 13 13 13 11 11 12 14 14 14 14 13 14 14 15 15 14 15
20 20 19 21 20 21 29 33 32 31 38 53 47 23 18 27 29 29 32 30 20 16 16 15 15 13 13 15 14 15 15 14 11 8 8 9 8 9 8 9 10 13 17 19 18 17 18 20 20 21 19 19 22 21 22 23 22 20 17 16 15 12 12 14 19 22 18 20 19 14 15 16 17 16 14 12 12 13 14 15 16 15 14 15 15 15 15 16
17 18 19 19 17 18 23 28 32 34 37 36 26 21 25 28 29 31 34 32 21 16 16 15 15 14 15 16 15 15 14 14 11 8 8 8 8 8 8 9 9 11 15 16 17 15 18 23 20 19 19 19 23 23 24 23 21 20 19 18 15 14 15 14 19 25 23 22 20 17 17 17 16 16 14 12 12 14 14 15 16 16 16 16 16 15 15 17
16 17 16 18 19 17 16 24 33 34 31 26 22 25 25 27 32 33 37 36 24 17 17 15 15 14 15 15 15 15 14 14 11 8 8 7 8 8 8 8 9 12 12 13 16 13 17 26 20 17 20 19 22 24 23 22 20 18 18 19 17 15 16 16 19 23 20 20 20 18 20 17 13 13 13 11 12 13 13 13 14 16 17 16 15 14 16 19
14 16 15 18 20 18 23 30 28 24 24 24 25 25 22 28 36 37 42 42 28 20 20 18 16 15 15 15 13 13 14 14 10 8 8 7 7 9 10 10 9 13 12 11 15 13 17 25 19 18 21 19 21 22 19 20 20 18 17 17 18 16 17 18 20 20 17 19 23 23 22 18 13 14 13 12 13 14 14 14 13 14 15 13 12 14 16 18
14 16 14 15 17 20 33 36 23 19 24 25 26 24 23 34 43 43 48 47 30 20 19 16 15 14 14 13 12 13 16 13 9 8 8 8 8 8 11 11 10 12 12 14 17 15 17 22 19 20 21 19 21 19 17 18 18 21 22 18 17 16 17 20 20 20 17 18 25 27 22 18 15 13 11 12 15 15 15 14 13 12 11 11 12 14 15 16
14 16 15 16 17 19 28 32 27 24 25 26 25 22 29 41 46 45 53 53 32 17 15 13 13 14 12 11 11 13 14 10 10 11 8 8 9 8 11 11 10 11 12 15 18 19 21 23 21 21 20 17 17 15 16 19 18 21 24 19 16 16 17 19 20 20 18 17 24 23 20 23 19 12 11 13 15 15 15 15 14 12 11 13 14 14 14 15
15 17 16 13 15 17 19 28 35 31 28 29 26 26 36 46 46 45 47 44 29 15 14 14 14 13 11 12 12 11 11 9 11 11 7 9 9 8 10 9 9 11 12 14 16 19 20 19 17 17 17 15 13 11 14 19 19 19 21 18 16 17 17 19 20 19 19 21 25 21 20 26 22 12 11 15 16 14 13 14 15 14 13 13 14 14 14 14
18 18 14 16 28 32 26 30 33 29 30 32 29 30 41 48 48 44 39 34 27 17 13 13 14 14 12 13 13 11 12 11 11 9 8 9 9 8 9 8 9 12 13 14 13 13 15 17 15 13 14 12 11 14 16 17 17 19 22 17 16 17 18 20 19 18 22 24 24 20 18 24 24 13 9 14 17 14 12 13 14 14 13 14 14 14 14 13
18 16 14 22 34 35 32 32 31 31 32 34 34 35 45 48 39 33 31 27 24 19 15 14 14 13 12 14 15 12 12 12 11 11 10 10 10 10 9 9 11 12 14 14 13 11 12 15 14 10 10 9 11 17 17 14 13 18 20 17 18 20 20 23 22 23 29 28 22 16 15 22 26 16 8 10 14 12 11 11 12 14 14 14 14 13 13 13
21 20 21 22 25 33 38 35 32 33 30 32 38 37 41 41 26 21 24 22 24 23 18 17 16 14 13 14 14 12 12 14 12 11 12 11 12 12 10 11 12 14 16 15 14 13 12 13 11 10 9 8 12 14 14 13 14 16 17 18 22 22 22 28 28 28 30 28 20 15 17 25 25 16 10 11 12 12 11 10 11 14 14 14 13 13 13 12
33 33 35 31 33 46 43 28 25 25 26 35 41 36 34 30 20 19 18 16 23 23 17 18 17 14 14 14 14 13 13 14 13 12 13 12 13 13 11 10 10 15 18 16 17 17 15 13 11 12 11 10 11 13 15 17 16 16 16 18 23 23 26 30 26 23 23 22 19 16 20 27 23 15 11 10 11 11 10 10 11 13 14 14 12 11 12 12
43 41 45 44 45 46 32 21 21 21 30 42 38 33 32 25 18 18 15 13 19 17 14 16 14 12 12 11 12 13 12 14 13 13 14 14 16 17 15 12 10 13 16 17 18 17 18 16 12 13 14 13 12 10 12 14 15 17 14 15 19 21 25 27 21 18 20 22 24 24 28 29 22 16 12 9 9 10 10 10 10 12 12 12 12 10 11 11
41 41 48 51 48 42 30 24 24 27 40 42 31 28 27 20 16 16 16 15 16 14 12 13 11 10 9 8 11 12 11 13 13 13 14 14 16 18 17 17 14 13 16 19 18 16 19 17 11 11 13 13 13 10 9 11 13 14 13 15 19 16 18 22 22 22 24 28 27 25 28 25 18 14 10 10 10 8 10 10 10 12 11 12 12 11 11 12
48 49 49 45 37 37 38 35 33 40 45 36 26 23 19 18 17 17 20 18 16 17 14 11 10 10 10 10 13 15 13 13 13 14 13 11 13 14 14 16 16 15 16 18 18 18 20 17 10 10 13 11 11 10 9 11 14 13 14 18 18 13 14 21 24 23 27 34 28 21 24 20 16 16 11 10 12 10 10 10 10 12 12 12 14 13 12 12
54 48 42 35 28 33 40 41 42 44 39 31 28 23 16 18 17 15 20 19 16 18 15 12 13 14 14 12 13 15 16 15 12 13 14 12 14 14 13 16 16 15 14 16 18 17 19 21 13 10 14 11 9 10 9 10 12 15 16 15 12 12 14 19 26 26 27 33 28 22 25 22 19 20 14 11 13 13 11 10 10 12 12 12 13 14 14 12
52 39 34 34 32 34 37 40 41 38 33 29 27 22 16 17 18 18 20 18 17 17 16 17 17 17 18 16 13 12 15 18 13 13 15 14 15 15 15 18 17 15 15 16 19 17 19 25 19 11 12 11 8 12 14 12 10 12 14 12 13 19 20 20 27 32 34 36 31 26 24 20 18 17 15 14 13 13 13 12 11 11 12 13 12 13 14 13
48 36 36 35 34 37 40 42 40 35 33 28 24 23 21 18 19 20 18 17 18 17 18 19 18 20 19 17 16 14 14 17 14 14 15 13 18 20 16 17 19 18 17 17 19 18 20 29 27 15 11 12 12 16 20 17 12 12 13 13 14 19 20 20 22 26 32 37 34 30 25 19 16 14 13 15 14 13 13 13 13 12 11 13 13 13 14 14
38 30 34 34 35 41 44 44 41 34 30 27 23 20 20 19 19 19 19 18 18 18 20 20 20 23 22 19 20 17 16 17 15 15 15 12 17 21 19 19 20 19 18 18 19 18 19 28 32 22 13 14 16 17 18 16 15 16 18 20 20 20 20 21 22 21 24 32 34 33 30 20 14 13 12 14 14 14 13 13 14 14 13 13 13 14 15 15
27 26 32 30 33 41 43 42 38 29 22 24 25 20 20 22 19 17 21 20 17 16 17 19 19 21 23 23 21 18 18 19 17 15 16 13 14 20 23 23 20 18 19 19 18 21 21 25 33 32 24 21 18 14 13 13 14 16 18 19 21 23 24 26 29 25 22 29 32 33 34 24 14 14 13 12 13 13 12 12 12 12 13 14 13 15 16 15
24 27 30 26 27 32 37 37 31 25 23 24 26 22 23 25 19 16 19 18 17 16 15 19 20 20 23 22 20 19 19 20 18 15 17 15 13 19 24 23 20 18 19 18 18 27 32 30 34 36 29 22 17 12 12 13 12 14 17 18 19 23 25 28 34 29 24 28 29 31 38 30 17 15 15 14 15 13 13 14 13 12 13 14 14 14 16 16
19 24 24 23 22 23 31 32 25 25 27 27 24 19 19 21 19 18 18 17 17 17 18 21 21 22 23 22 21 21 18 20 20 17 17 15 14 21 24 20 20 18 16 17 19 29 37 32 31 31 22 16 14 11 11 11 11 14 16 16 18 21 23 25 28 28 31 35 32 36 44 34 19 16 16 17 18 17 17 16 15 15 15 15 15 15 16 17
18 22 18 19 19 22 31 30 22 23 26 30 31 26 22 21 20 20 19 19 19 19 22 23 20 20 21 19 22 20 17 23 24 18 17 16 17 24 23 20 21 18 16 23 26 30 36 33 31 31 28 25 21 15 13 11 13 16 17 19 23 25 27 30 30 34 44 43 35 41 45 32 20 19 18 20 21 21 20 17 17 20 18 16 16 16 17 16
22 22 15 15 16 20 27 25 22 21 22 31 34 27 24 23 21 22 20 17 16 17 21 23 19 20 19 18 21 21 18 21 24 20 19 18 17 19 20 22 22 17 22 35 35 30 33 34 31 33 37 36 29 21 17 16 18 20 21 24 27 27 29 35 38 43 50 46 38 43 44 32 24 21 21 23 23 21 21 19 20 23 24 22 16 15 17 17
21 21 16 16 15 18 21 20 21 20 21 29 28 23 25 23 21 22 19 15 15 17 20 20 19 20 21 22 26 27 23 20 22 23 21 21 18 14 15 21 19 18 32 45 37 28 31 33 31 32 34 31 26 21 18 19 23 24 22 22 23 23 25 31 37 40 41 41 40 40 38 34 31 26 24 26 24 21 22 22 21 24 33 38 31 22 17 15
21 25 24 23 20 18 19 20 20 20 24 28 25 26 30 24 20 23 21 18 20 21 22 21 21 24 27 30 35 37 32 26 25 26 25 24 21 16 14 17 17 21 36 40 30 26 33 34 32 34 32 26 23 21 19 20 23 22 21 21 21 21 23 28 35 34 31 36 39 34 32 37 36 28 24 25 23 21 20 19 19 22 31 41 43 39 31 19
22 28 28 29 29 24 22 23 21 18 21 23 23 31 35 26 24 28 26 23 22 22 24 27 26 25 26 29 36 41 38 34 32 31 29 26 24 22 18 16 15 19 29 29 23 26 34 36 34 32 30 25 22 22 21 19 19 19 20 22 22 23 26 31 35 32 31 37 38 33 35 40 36 29 25 23 21 21 18 17 18 19 21 28 34 39 45 42
23 27 29 29 32 31 27 27 25 23 24 25 25 29 33 32 30 30 27 28 29 24 26 34 32 24 22 23 30 38 39 38 39 36 31 29 28 29 28 25 20 17 19 21 22 25 30 33 32 30 29 27 23 21 20 18 19 19 19 20 21 22 24 27 29 28 29 35 34 33 41 43 35 28 24 20 20 21 19 17 17 16 15 21 25 27 37 50
30 32 36 32 29 33 35 32 31 30 29 31 32 29 31 34 32 28 27 32 38 36 32 36 33 23 21 22 27 35 34 34 38 35 32 36 37 34 33 30 24 18 16 19 22 24 28 30 29 29 32 32 26 22 20 19 20 20 19 19 19 22 25 27 28 30 32 36 34 36 46 46 34 26 22 21 21 20 20 20 19 20 17 17 24 24 24 33
40 40 43 39 30 31 32 29 30 30 24 27 33 31 31 33 29 30 31 26 29 34 31 34 33 25 23 25 28 31 33 38 41 35 31 36 35 30 28 25 23 24 23 22 23 25 28 30 28 27 34 34 26 22 22 21 22 25 27 27 25 28 31 31 32 34 37 43 44 44 46 40 30 24 22 21 20 18 20 19 18 21 19 16 21 24 22 23
47 43 42 41 36 29 25 23 26 27 25 29 31 26 26 27 23 31 38 26 20 25 28 32 36 31 30 34 32 30 34 41 40 31 26 26 23 22 23 23 23 26 27 28 29 27 27 29 28 29 34 33 24 21 22 25 31 32 30 29 29 31 34 34 35 35 35 40 44 43 38 30 25 24 23 23 22 19 20 18 18 23 23 20 19 18 21 25
Wind_Speed
8 8 8 8 8 8 8 7 7 8 8 7 7 7 7 8 8 8 8 7 6 8 9 8 8 8 8 8 9 9 8 10 10 14 12 4 2 3 4 6 8 9 8 9 11 10 10 12 13 13 12 9 8 9 9 9 8 5 6 7 6 8 7 4 6 4 2 8 9 10 12 11 11 9 5 6 6 7 8 6 8 7 8 10 13 16 17 15
8 8 8 8 8 8 8 7 8 8 7 7 7 7 6 7 8 8 8 7 8 9 9 8 8 9 9 9 9 10 10 12 15 14 6 3 0 3 4 6 7 9 9 11 11 12 11 11 12 13 10 7 8 8 8 8 8 7 7 6 8 8 2 2 1 2 2 5 7 8 10 10 11 11 8 9 9 8 8 9 9 9 10 9 13 15 15 14
8 8 8 8 8 8 8 7 8 7 7 6 7 7 7 7 7 7 7 7 9 9 8 8 8 9 9 9 10 9 10 13 15 9 6 5 4 5 6 7 7 9 10 10 10 12 12 11 12 12 10 8 8 8 8 8 8 8 8 7 9 7 2 3 2 3 3 2 7 8 8 8 9 10 8 10 10 10 9 9 10 10 11 11 13 14 14 13
8 8 8 8 8 7 7 8 7 7 7 7 6 7 7 7 7 7 7 8 9 8 8 9 9 10 9 11 10 7 10 13 8 7 10 7 5 3 3 5 6 8 10 9 9 10 11 10 12 12 10 8 8 8 7 8 8 7 9 7 4 3 2 3 1 0 2 1 4 8 7 7 8 7 8 9 8 8 10 10 9 8 13 12 13 14 14 13
8 8 8 8 8 7 8 8 7 7 7 7 7 7 7 7 7 8 8 8 8 8 9 9 9 10 10 11 9 6 10 7 5 12 10 6 3 2 3 4 6 8 10 9 8 9 10 10 10 11 10 8 8 8 8 10 8 6 10 8 6 5 0 5 3 1 1 3 3 7 8 8 7 6 7 9 8 3 0 7 7 5 12 13 13 13 13 13
8 8 8 8 7 7 8 8 8 8 8 7 7 7 7 8 8 8 8 8 8 8 8 8 9 10 10 10 7 8 9 1 8 11 9 5 1 2 3 5 7 8 10 9 9 9 10 10 10 10 9 9 8 9 10 10 8 6 9 8 3 5 2 5 4 2 3 5 5 6 5 5 7 8 7 9 5 6 8 7 6 5 11 13 13 13 12 12
9 8 8 7 7 8 8 8 8 8 7 7 7 7 7 7 8 8 7 7 7 7 7 8 8 9 10 9 7 10 11 2 8 10 8 4 1 1 1 3 6 9 9 10 10 9 9 10 10 9 9 8 8 10 10 9 8 8 7 6 5 4 1 3 4 3 3 5 3 2 1 4 8 7 6 9 3 6 4 4 5 6 12 13 12 12 11 12
9 8 8 8 8 8 8 7 7 7 7 7 7 6 6 7 7 6 6 6 6 6 7 7 8 9 9 8 7 10 7 5 11 10 7 4 2 1 2 5 6 8 10 10 9 9 8 10 10 9 9 7 7 8 7 7 9 11 8 3 6 4 2 3 3 4 4 3 1 1 4 7 6 1 4 9 3 5 2 3 5 7 11 11 11 12 11 11
9 9 8 8 8 7 7 7 7 8 7 7 6 5 6 6 6 6 6 6 6 6 6 7 7 8 8 7 10 7 4 9 11 10 7 5 3 4 4 6 8 8 9 8 7 9 7 8 10 9 8 4 5 7 6 7 8 10 8 2 6 6 5 5 5 5 5 4 3 6 9 7 4 2 5 10 6 6 4 5 6 8 10 10 11 11 11 11
10 9 8 8 8 7 7 7 6 6 6 6 6 6 6 6 6 5 6 6 6 6 6 7 7 8 8 8 11 4 7 9 9 9 7 6 5 6 6 6 6 8 8 6 7 9 6 6 6 6 7 4 5 6 7 8 3 5 6 3 6 6 6 6 6 6 5 4 4 8 9 6 6 5 9 9 9 8 6 8 8 9 9 10 11 11 10 11
10 9 8 8 7 6 6 6 5 5 5 5 5 6 6 6 6 5 5 6 6 6 6 6 7 9 10 11 10 1 6 7 8 8 7 7 7 7 5 4 5 8 7 6 7 6 5 7 4 4 4 2 6 6 7 5 2 4 6 4 6 5 7 8 6 6 6 5 6 8 9 7 7 9 9 6 10 8 8 9 10 10 9 10 11 11 10 10
10 9 8 7 6 5 5 5 5 5 5 5 5 5 6 6 6 5 5 6 6 6 6 6 7 9 10 11 5 4 6 6 6 6 7 8 8 5 3 3 5 6 6 6 5 3 5 5 6 8 2 1 6 5 4 4 4 6 6 7 9 8 8 10 9 7 7 5 5 5 9 9 11 13 10 8 9 8 9 10 10 10 9 10 11 10 9 10
9 9 7 6 5 5 5 5 5 6 5 5 5 5 6 6 6 6 6 6 6 6 6 6 7 8 9 6 4 7 4 4 5 4 6 8 8 5 4 4 4 5 5 6 1 2 5 4 8 9 4 6 4 4 1 5 7 7 8 9 8 8 9 12 11 8 7 4 5 4 7 9 13 16 11 10 9 9 10 10 10 10 9 10 10 9 9 10
8 7 6 5 4 5 5 5 6 6 6 7 6 7 7 6 6 6 6 6 6 6 5 7 7 7 7 1 8 6 4 3 5 6 7 8 8 7 6 5 4 4 4 5 3 3 5 5 8 8 4 7 1 5 4 6 7 8 9 8 6 7 8 13 13 9 8 6 6 7 7 8 10 14 12 10 10 10 11 10 10 10 8 9 9 9 10 10
8 6 5 5 4 5 5 6 7 7 7 7 7 7 7 7 6 6 6 5 6 5 5 8 8 6 7 3 7 5 5 6 7 7 7 8 9 8 7 6 5 4 4 5 4 4 5 6 8 7 4 4 3 5 8 6 6 8 7 6 7 8 3 12 13 10 9 6 8 10 7 8 7 12 12 9 10 11 11 11 10 10 9 9 9 9 9 10
8 6 5 5 5 5 7 8 8 7 6 5 5 6 7 7 7 6 6 5 5 4 4 7 8 9 7 2 8 5 7 6 5 6 5 7 9 7 6 5 5 5 5 4 4 5 7 8 6 5 2 4 5 7 7 6 7 7 7 7 8 8 5 9 11 12 11 7 10 11 8 8 5 11 12 10 11 11 11 11 10 10 9 9 8 8 8 9
8 6 5 4 5 6 7 7 8 7 4 3 2 2 5 6 7 6 6 6 5 4 7 9 6 7 5 3 7 7 6 4 3 5 6 7 7 4 7 6 5 6 5 5 5 7 8 7 4 3 4 6 7 7 7 7 7 6 7 7 7 8 6 5 8 11 12 9 10 12 11 11 5 8 11 10 11 12 11 10 11 10 9 9 9 9 9 9
8 6 5 4 5 6 7 7 7 5 3 2 2 1 4 6 6 5 5 4 4 5 8 9 6 5 3 5 6 4 4 3 3 5 6 7 6 5 7 6 4 5 6 6 7 7 7 6 5 5 6 6 6 7 8 7 6 6 7 7 7 7 9 8 2 7 11 10 10 11 12 13 11 6 10 11 11 12 11 10 10 10 10 10 9 9 9 10
8 6 5 4 5 5 5 6 7 5 3 3 4 3 4 5 4 6 8 7 6 4 2 5 6 3 3 6 4 5 4 3 4 6 7 7 7 7 7 5 5 7 7 7 7 7 6 5 5 6 7 8 8 8 7 6 7 8 5 4 7 6 7 7 2 6 6 8 10 11 11 13 14 11 10 11 11 12 11 10 9 9 10 10 9 9 9 10
8 6 4 4 5 4 4 5 6 5 1 2 1 1 2 2 3 5 8 9 6 4 3 3 5 3 3 6 5 5 5 6 6 7 8 7 7 8 8 7 7 7 7 6 6 5 3 5 7 6 5 5 7 4 5 8 8 7 6 5 7 7 7 5 4 7 3 5 9 11 13 14 14 13 11 12 12 12 13 13 11 10 10 9 10 10 10 11
7 5 4 3 4 3 2 3 5 4 2 1 5 7 2 5 4 2 1 7 4 3 4 2 3 4 1 4 3 3 5 7 7 6 7 8 7 7 8 8 8 7 8 5 2 2 2 7 9 3 4 4 3 2 5 6 6 6 7 7 8 9 8 4 3 5 2 4 10 12 14 15 14 13 12 11 13 14 14 14 13 13 12 11 12 13 12 11
8 5 3 3 2 2 1 1 2 3 4 4 8 6 5 8 6 5 5 5 4 2 3 1 3 4 2 2 1 1 5 6 7 8 7 7 9 8 7 8 9 7 6 4 2 4 7 9 6 4 6 5 2 3 5 6 7 7 7 8 8 8 7 3 4 4 4 4 8 12 14 13 13 13 14 13 12 13 14 15 15 15 14 13 13 13 12 11
8 6 4 3 2 1 2 2 1 2 6 8 6 4 7 7 6 4 6 6 3 3 3 3 4 5 6 5 3 5 8 4 6 9 9 9 10 8 5 7 10 7 5 7 8 7 5 4 2 6 5 1 3 5 6 6 6 7 7 7 7 6 6 5 5 4 4 4 8 12 11 9 10 13 14 15 14 13 14 16 16 15 14 13 12 11 10 11
9 6 5 4 3 3 2 3 5 4 5 7 2 6 6 7 7 5 5 7 2 4 2 2 2 2 3 2 3 8 7 2 2 7 10 10 8 5 7 8 9 8 7 9 11 10 4 5 7 5 4 4 6 7 8 7 6 8 8 8 8 5 5 5 1 2 4 7 9 10 8 9 12 14 13 13 15 15 15 16 16 15 14 13 12 12 11 9
9 7 5 4 4 4 4 5 6 4 5 5 3 5 6 7 6 5 5 6 3 5 4 5 2 2 3 2 5 6 5 2 2 5 9 9 6 4 6 7 6 8 10 10 10 10 3 6 5 4 4 7 8 7 8 7 6 8 9 9 9 8 6 5 3 3 6 7 9 8 7 7 9 13 13 11 13 15 14 15 16 15 14 14 13 12 11 9
8 7 5 5 4 5 6 3 2 4 5 2 4 6 8 7 4 4 4 5 4 5 6 6 3 2 3 5 7 4 5 5 3 3 6 6 5 5 5 5 5 7 7 6 6 7 2 4 3 4 5 8 9 8 9 8 7 6 4 7 7 7 7 7 6 7 7 4 7 8 7 6 3 8 11 10 10 12 12 14 15 14 14 14 12 11 11 11
8 6 4 4 3 5 5 3 2 6 3 3 5 7 8 6 3 2 4 4 3 2 3 5 3 1 1 3 5 5 2 5 6 6 6 5 4 5 6 5 6 6 5 2 4 4 4 6 4 5 7 8 7 9 9 9 9 3 2 3 6 7 8 9 8 8 8 4 5 10 9 7 6 7 8 10 10 11 11 12 13 13 13 13 12 11 12 12
8 4 3 2 2 4 4 5 8 5 4 6 6 8 8 5 2 3 5 2 3 1 1 4 4 1 3 3 6 7 0 4 5 6 7 6 6 6 7 8 7 5 5 5 4 1 4 7 7 7 8 7 8 9 6 8 9 1 2 3 5 7 9 9 8 8 8 7 5 10 10 6 8 8 5 9 10 11 11 12 12 12 12 12 11 11 12 12
7 2 1 0 1 2 2 4 7 6 6 6 7 8 7 3 3 4 5 2 2 2 1 3 3 4 5 6 8 6 4 5 3 5 7 7 7 7 6 7 8 4 4 8 8 1 3 5 5 8 8 7 10 8 3 7 7 1 1 5 6 7 8 8 9 7 8 9 8 9 9 7 8 6 6 8 9 10 10 11 11 11 12 11 11 11 11 10
4 1 2 2 1 1 2 3 3 5 5 6 7 8 6 5 4 5 4 1 1 4 3 2 3 3 5 7 8 7 7 6 3 5 7 6 7 8 6 5 6 6 5 9 10 7 3 4 4 7 8 8 7 2 2 6 6 2 4 8 8 8 8 7 7 7 8 8 10 13 12 9 7 6 6 6 8 8 7 8 10 11 11 11 10 10 11 10
2 2 3 2 0 2 4 2 2 5 6 7 9 8 7 4 5 6 2 0 1 3 4 4 3 3 5 5 4 6 7 7 6 7 8 5 7 8 7 6 5 6 7 8 10 11 9 8 6 7 10 10 6 3 6 9 7 5 7 8 7 7 7 7 7 7 8 8 10 14 12 10 8 7 6 2 7 7 6 7 9 11 11 10 9 9 10 10
3 4 4 2 1 1 4 4 5 7 7 9 10 7 6 4 6 4 2 2 3 2 2 2 1 2 3 4 4 4 3 5 6 8 8 6 7 7 8 7 5 6 7 6 7 9 10 10 10 9 11 11 9 7 8 8 8 8 8 7 7 7 6 7 8 7 8 9 11 11 8 9 9 9 9 4 5 7 6 7 7 10 11 10 10 10 10 10
5 6 6 4 3 2 5 5 5 8 9 9 8 6 5 6 5 2 2 2 1 2 1 2 3 5 5 6 5 4 4 3 5 7 8 7 6 7 9 9 6 5 4 4 4 5 7 10 12 11 9 10 10 8 6 7 8 9 9 8 8 7 7 9 8 8 9 9 9 7 6 8 8 8 11 9 8 8 7 8 7 8 10 9 9 10 10 11
6 6 7 6 5 4 4 4 4 7 9 9 7 5 6 6 3 1 2 1 3 1 3 2 5 8 8 8 3 2 5 4 4 6 6 7 7 6 7 9 8 7 5 6 5 5 8 7 8 9 6 9 13 12 9 8 7 9 10 9 9 8 8 9 8 8 8 5 2 3 5 6 6 3 5 9 9 8 9 10 8 8 8 8 8 9 9 10
7 8 7 5 5 5 5 4 5 8 9 7 6 6 6 5 3 2 3 3 3 3 4 4 7 9 8 7 3 2 4 3 5 7 7 7 7 6 6 7 7 6 6 6 4 5 10 8 5 7 5 6 11 12 11 11 9 8 8 10 10 8 8 8 9 10 9 6 4 5 6 6 6 6 5 6 8 9 11 11 11 11 10 9 9 9 9 9
4 5 4 3 4 5 5 5 7 9 8 6 6 6 3 3 4 5 4 5 5 6 8 8 8 8 7 5 4 4 3 4 6 6 6 8 7 7 6 3 3 5 7 7 5 5 8 8 3 6 6 7 10 10 10 10 8 5 6 9 9 10 10 8 10 10 9 9 8 8 8 8 8 10 10 11 12 12 12 12 13 12 12 11 10 9 10 10
2 1 2 4 6 5 5 6 8 10 8 6 6 5 4 3 3 5 5 5 6 5 8 9 3 3 7 4 4 6 5 3 6 5 5 6 5 6 5 2 3 6 6 6 6 5 6 8 6 7 10 10 9 10 10 10 9 7 7 8 7 10 10 7 8 9 9 10 9 8 11 10 9 8 10 14 15 14 14 13 13 13 13 13 11 10 11 10
4 3 2 7 8 7 6 6 9 9 7 6 5 2 4 3 3 4 5 5 7 5 6 7 1 1 6 6 6 5 2 3 5 5 6 6 3 3 5 4 4 4 4 4 5 4 4 7 9 11 13 10 6 7 10 11 14 13 11 9 8 9 9 7 7 8 9 10 9 10 13 12 11 9 9 13 14 13 14 14 13 14 14 12 11 11 11 10
7 5 2 8 9 6 6 7 8 8 6 6 4 0 2 2 3 3 4 5 6 5 6 6 3 3 5 6 7 6 5 7 7 5 6 5 3 3 3 3 2 3 3 5 6 4 3 7 8 9 11 9 6 7 9 10 12 13 10 9 9 8 9 9 8 7 9 10 9 11 13 11 10 10 11 14 14 12 13 13 13 14 14 13 11 10 10 10
7 5 1 9 10 7 7 8 8 6 5 4 4 2 1 1 1 1 3 5 5 5 5 6 5 5 6 7 7 6 6 7 7 7 6 5 3 4 1 2 3 4 3 5 8 6 5 7 8 9 10 9 8 8 9 10 9 8 8 9 9 8 8 10 9 8 9 9 9 10 11 10 9 9 10 12 13 13 12 12 13 13 13 13 11 9 9 9
5 3 3 9 11 8 8 9 5 3 5 3 2 3 3 4 3 2 1 2 4 4 5 6 7 7 6 7 7 6 6 6 6 7 6 5 5 3 1 3 4 5 4 6 8 5 4 6 7 9 9 9 11 11 12 14 11 9 8 8 9 8 8 9 9 9 9 8 9 10 11 10 8 7 8 10 11 13 13 12 13 12 12 13 11 10 10 9
5 2 4 9 12 9 8 7 1 2 5 2 3 3 2 3 6 4 1 3 4 4 4 5 7 7 7 7 7 6 6 5 7 7 5 6 5 1 2 3 4 6 6 8 6 2 3 5 8 10 10 12 16 16 16 17 16 14 11 10 10 9 9 9 9 10 9 9 11 11 11 11 8 8 10 11 11 12 14 14 12 9 10 13 12 11 12 11
3 3 3 7 10 8 7 5 2 2 2 3 5 4 1 2 6 4 3 4 4 3 4 4 5 6 5 5 5 7 7 5 7 8 6 8 4 3 3 3 5 6 7 7 5 3 3 5 8 10 10 12 16 17 17 18 16 14 12 12 12 11 11 11 10 10 9 10 11 10 11 11 8 9 10 9 10 12 13 12 13 11 10 12 12 12 12 12
3 2 2 6 9 6 6 4 3 3 2 3 4 4 2 3 5 5 5 4 2 3 5 5 5 5 4 5 5 7 7 5 5 6 6 8 2 5 3 4 4 6 7 4 2 3 3 5 7 8 9 9 10 11 12 13 11 9 9 9 9 11 13 11 10 9 9 13 15 12 10 10 8 10 10 9 10 12 14 13 14 14 12 11 12 12 13 13
3 2 1 4 7 5 2 3 5 5 5 4 6 7 6 4 2 2 7 7 4 5 5 5 5 5 6 7 7 7 8 7 6 5 6 7 4 3 2 0 2 7 4 7 5 5 5 6 6 7 9 9 9 7 6 6 5 5 7 9 10 13 14 10 8 8 9 13 15 12 10 11 12 14 14 13 13 14 15 15 14 14 14 14 13 13 13 14
3 2 3 4 4 3 1 2 3 4 5 5 5 6 6 6 2 3 3 7 5 5 6 6 6 6 7 7 8 8 9 9 8 7 7 8 7 6 2 1 5 8 2 6 3 6 6 7 9 11 12 12 13 13 12 11 10 11 13 15 15 16 16 12 9 10 11 12 13 13 13 14 16 18 17 16 17 18 16 16 15 13 12 13 14 14 15 15
3 2 4 5 3 2 0 1 2 3 3 3 4 4 4 7 5 2 2 3 2 3 6 6 6 7 7 7 7 8 8 9 9 9 9 8 8 9 7 5 8 7 1 2 6 6 5 9 12 14 17 19 19 20 18 16 15 17 19 20 20 20 19 15 13 14 15 13 13 14 15 15 16 18 20 19 19 19 18 18 17 14 10 8 10 14 16 17
3 2 2 3 3 3 2 3 5 5 5 4 4 4 5 8 8 4 3 2 2 3 4 5 6 8 7 6 6 7 8 9 8 8 9 9 9 9 10 10 10 7 5 7 9 7 6 9 11 15 19 21 21 21 20 18 17 18 20 22 22 22 20 18 17 19 18 14 14 17 19 18 17 19 23 22 20 19 20 19 18 18 15 13 11 11 13 17
3 2 1 0 4 4 4 5 6 7 7 4 3 5 6 7 7 5 3 3 4 5 5 5 7 8 7 7 7 7 8 8 8 8 8 10 10 9 9 10 10 9 9 10 8 7 7 9 11 14 17 20 21 20 19 19 18 18 21 24 24 23 21 21 20 21 21 20 19 21 21 20 18 20 24 23 21 19 19 18 19 20 20 19 18 16 11 12
4 3 2 2 5 4 2 4 5 6 5 3 3 5 5 6 8 6 3 4 5 6 5 6 8 9 9 9 9 10 10 10 11 11 9 10 9 8 8 9 9 10 11 10 8 7 8 8 10 11 13 17 19 17 18 19 18 19 23 25 24 21 20 20 19 18 18 19 20 20 19 17 17 20 23 22 20 18 18 20 20 20 22 20 19 21 18 13
5 3 3 5 5 2 2 4 4 5 5 3 3 3 3 5 7 5 5 7 8 8 7 8 10 10 10 11 12 11 9 10 12 12 10 10 11 10 9 9 9 10 9 9 8 7 7 8 10 10 11 14 15 15 16 18 17 20 24 23 21 18 17 17 15 15 15 15 16 17 15 14 15 18 20 20 21 20 21 22 20 19 23 22 19 21 22 19
6 2 3 5 4 2 3 4 4 5 4 1 2 5 5 6 6 4 5 6 6 6 5 6 8 9 8 11 12 9 8 10 11 12 11 12 14 13 12 12 13 12 10 9 8 8 9 9 9 9 10 13 15 14 13 13 13 16 17 16 16 17 18 17 16 17 18 15 13 13 13 14 16 18 18 19 21 22 20 20 18 18 20 21 23 23 21 22
Wind_Direction
316 312 311 307 307 305 302 298 296 295 291 287 287 284 282 281 275 274 274 267 270 279 285 285 286 293 292 298 294 295 291 281 267 230 220 231 298 291 236 213 217 211 204 214 218 221 215 215 216 209 214 210 216 230 204 205 232 226 228 242 236 234 244 238 206 205 77 114 144 159 168 179 166 169 163 175 183 136 147 139 114 107 89 91 102 110 118 126
317 313 311 306 306 306 303 301 296 294 292 289 287 285 281 278 277 277 273 271 279 283 282 282 285 290 290 294 294 297 296 284 265 237 198 86 122 215 200 185 192 184 190 215 218 218 215 208 204 203 211 208 204 211 193 196 219 224 229 231 236 238 236 353 358 53 27 141 153 160 173 183 171 167 171 189 177 157 171 153 151 140 117 120 121 122 127 130
322 318 316 311 309 308 305 300 295 291 289 291 288 284 280 274 278 276 269 274 281 279 276 280 284 286 288 290 290 298 302 283 257 220 130 121 147 144 158 177 190 189 204 230 232 220 219 211 198 200 211 214 201 192 190 189 203 224 233 230 239 243 84 51 1 20 335 116 143 160 180 188 167 160 178 203 176 175 197 163 174 171 146 146 135 133 134 137
328 323 320 311 305 302 299 297 295 293 289 290 286 283 282 277 278 276 275 277 278 275 275 279 282 283 287 288 291 303 292 271 241 138 130 150 149 155 187 197 202 202 217 244 248 228 231 223 199 203 217 216 200 200 205 183 190 217 225 240 284 283 105 134 189 333 301 308 159 159 183 187 158 166 188 211 188 189 213 174 175 174 149 146 139 140 142 146
326 319 312 305 301 298 299 300 298 295 289 286 285 286 283 281 282 281 280 276 274 273 273 277 281 284 286 287 293 291 275 260 128 118 138 155 152 236 248 236 218 211 230 242 231 219 227 224 203 207 224 226 198 203 221 197 204 229 225 249 342 329 221 121 120 90 203 259 196 159 194 185 156 196 199 217 210 168 207 137 133 135 138 143 143 146 149 153
318 313 311 310 308 303 301 299 294 293 291 284 281 281 277 279 282 277 271 266 265 265 269 276 281 285 287 288 284 262 261 254 106 124 140 154 181 268 257 246 218 209 234 235 211 206 211 210 205 207 224 231 199 204 222 199 211 241 229 234 289 303 336 101 120 127 197 223 203 176 196 162 167 211 202 224 224 69 47 86 102 111 130 138 145 150 155 156
326 321 317 315 307 301 298 294 293 292 289 284 278 271 268 271 271 267 261 257 257 260 269 275 281 290 294 289 263 241 245 183 116 129 139 160 182 293 226 200 199 207 225 224 206 201 205 205 207 208 220 230 207 207 210 190 210 242 245 211 202 254 336 97 126 152 205 221 215 141 145 171 198 213 186 220 229 80 61 80 101 114 125 137 147 154 159 158
331 324 317 311 305 302 299 293 291 290 283 284 281 266 265 266 259 256 254 251 250 258 267 274 283 296 307 304 261 232 225 120 121 138 146 161 163 132 135 153 192 212 218 221 213 208 209 209 211 213 223 229 209 200 185 187 211 233 251 178 168 216 176 133 148 168 192 222 247 179 221 213 212 239 184 215 198 115 143 124 132 133 132 143 151 157 159 159
329 323 318 314 310 304 298 291 287 289 285 282 278 265 263 261 253 245 244 244 249 258 265 272 283 296 310 302 268 240 126 103 128 150 158 168 171 172 189 189 193 209 219 221 226 228 221 214 214 223 246 257 210 196 181 212 215 217 239 167 171 204 172 175 188 180 196 206 204 219 227 218 205 287 241 223 175 138 166 166 165 152 150 153 154 160 160 160
333 329 323 316 310 304 300 295 287 284 282 281 275 264 260 257 252 242 243 243 248 259 263 274 289 300 296 265 260 259 105 116 141 155 169 177 178 193 211 206 195 219 229 212 220 235 238 242 235 234 267 274 212 200 193 223 235 198 225 203 191 193 168 200 204 182 209 211 207 233 233 215 196 219 242 217 161 157 184 179 173 162 163 161 155 162 163 160
339 332 326 320 312 310 305 302 298 287 282 283 273 262 257 254 251 244 244 244 251 262 267 280 292 299 291 263 265 284 125 140 146 162 182 186 196 209 209 198 215 238 241 216 217 238 266 276 266 231 257 233 195 204 203 223 311 205 218 201 188 200 186 202 212 190 213 208 200 245 251 229 203 221 241 182 149 174 192 183 177 172 171 165 160 162 164 162
339 335 330 324 319 318 314 312 309 300 289 281 268 257 254 252 250 242 238 240 248 258 265 280 294 304 291 269 268 96 133 157 151 170 188 196 211 218 211 220 238 255 261 243 213 215 267 276 245 234 252 230 193 190 200 201 241 221 214 214 190 204 210 201 208 199 214 201 172 247 259 234 216 225 220 149 155 186 188 189 180 178 175 167 165 165 169 165
343 339 335 333 333 331 328 322 310 302 294 283 271 258 254 249 243 235 231 236 244 257 269 284 296 294 280 276 101 111 135 153 163 191 199 204 211 205 214 235 239 251 267 283 281 185 255 259 243 250 264 255 207 107 140 188 223 223 211 232 201 202 219 203 201 194 206 175 139 234 255 236 218 213 193 151 173 189 186 194 181 180 177 169 170 170 173 167
350 344 344 346 343 337 330 319 308 301 292 282 271 258 250 242 235 232 234 237 243 258 275 287 294 282 266 237 102 132 159 154 189 202 201 203 204 200 207 223 222 227 243 276 287 217 251 242 241 260 254 267 297 115 212 198 214 226 210 232 227 236 223 186 186 189 198 158 155 227 257 262 221 185 167 153 174 187 189 192 182 181 178 172 174 178 178 170
359 357 355 351 347 338 325 319 312 305 296 283 268 256 242 233 227 225 233 235 247 265 286 284 269 255 257 172 120 136 166 191 209 195 196 197 202 203 194 202 203 210 232 243 241 215 234 225 232 250 200 242 290 190 217 203 207 225 214 222 227 249 208 161 176 191 203 175 181 221 245 263 225 158 153 158 174 188 191 191 186 180 179 181 178 186 190 177
5 3 360 354 348 340 335 332 324 319 308 287 273 255 233 223 219 219 227 232 248 258 271 270 235 230 274 97 126 156 175 189 187 173 196 204 215 212 178 192 198 200 220 220 221 203 212 220 235 278 214 206 239 220 220 208 208 218 224 238 226 223 192 159 175 196 213 200 194 216 240 262 225 147 155 172 180 193 199 192 189 182 180 190 188 192 200 190
5 0 3 355 349 349 347 347 345 345 335 324 326 252 212 206 209 212 225 239 252 245 249 270 263 241 271 97 147 177 167 153 152 176 194 203 232 221 176 199 203 197 199 192 210 200 200 216 221 255 239 220 224 224 230 221 212 206 212 245 248 232 228 190 171 187 205 209 208 214 233 265 268 143 159 188 192 199 210 198 189 189 188 197 203 200 203 203
3 357 359 349 354 360 1 9 10 12 29 49 42 129 179 186 194 210 227 227 223 233 245 256 271 264 211 160 167 150 129 138 165 189 185 191 223 221 204 215 203 192 189 185 202 204 197 203 213 221 215 216 223 223 231 237 244 238 215 226 242 235 246 256 199 160 184 205 226 223 224 247 254 197 171 194 205 203 213 211 197 196 200 203 211 214 210 210
359 358 355 349 358 6 20 28 29 38 71 91 71 85 139 167 187 221 228 208 203 236 254 196 215 278 106 132 121 100 120 152 169 192 188 188 204 213 221 228 214 205 202 189 186 199 209 202 214 231 221 210 214 226 253 301 324 309 291 246 253 247 240 253 120 128 188 212 229 238 236 239 242 230 194 188 205 211 213 217 212 207 212 212 215 224 225 223
358 357 347 348 359 10 39 42 45 48 71 147 139 222 182 201 217 209 211 210 229 308 332 172 201 256 114 122 118 122 145 165 189 200 186 185 200 211 212 212 213 214 228 220 173 180 234 230 218 230 251 215 197 238 310 340 344 322 311 281 270 270 260 260 140 143 210 248 245 248 248 246 242 239 222 193 194 213 219 219 220 218 221 225 226 230 232 233
356 348 338 346 354 11 59 56 55 40 2 209 245 253 318 358 326 357 239 212 205 331 295 263 269 269 102 105 126 150 174 184 196 190 171 185 210 214 195 200 217 213 221 231 133 130 225 246 235 213 22 45 99 325 317 309 301 283 275 265 259 256 254 275 97 133 171 248 259 258 252 250 244 244 239 211 197 209 221 224 226 226 226 231 236 238 237 235
350 337 326 318 337 14 141 110 68 12 332 277 252 266 20 13 341 344 316 247 153 133 250 195 238 236 148 177 176 222 237 204 181 167 161 190 214 217 180 190 228 217 184 197 216 205 213 241 238 133 76 50 54 284 266 260 267 259 251 252 256 255 242 194 135 183 218 233 258 258 254 251 245 247 249 236 220 212 215 224 233 236 234 232 235 239 240 240
346 333 312 290 305 322 219 204 230 312 303 272 264 354 17 0 333 315 292 273 162 155 206 168 204 190 165 191 168 210 241 225 176 161 161 200 215 227 219 208 232 226 180 202 226 236 229 220 153 104 96 145 227 232 236 240 243 243 249 252 248 253 259 228 172 189 226 241 265 268 265 260 248 247 247 241 238 231 221 223 233 239 239 239 240 246 247 243
346 330 303 286 285 279 246 234 242 254 274 271 357 33 357 347 331 312 291 271 200 127 125 134 210 154 128 136 169 220 246 293 195 146 154 203 212 218 240 241 236 228 216 217 229 248 249 109 111 115 130 199 222 216 225 242 238 230 237 254 266 276 279 267 176 152 233 237 248 263 268 258 244 238 238 234 230 234 233 228 230 231 232 238 244 250 251 242
345 327 301 284 277 278 277 254 236 246 259 256 48 26 338 343 328 312 296 261 181 123 146 165 179 101 95 173 190 233 256 216 218 125 153 208 234 220 230 245 243 235 225 208 221 250 239 105 130 169 175 215 228 222 220 233 253 245 226 229 265 294 286 263 242 231 253 240 213 225 255 255 231 224 229 228 219 223 232 235 232 226 227 233 236 236 234 224
339 329 304 280 280 283 280 255 209 268 261 236 36 359 333 337 320 306 287 246 161 138 167 177 186 120 141 186 180 227 245 189 145 125 173 218 267 276 252 224 219 255 255 200 221 258 177 124 190 193 209 229 231 237 229 224 249 265 210 190 226 274 268 253 246 233 257 264 170 195 258 285 243 215 215 210 210 214 223 234 234 229 227 228 227 219 215 210
336 327 298 277 278 280 293 338 309 277 272 52 20 337 332 337 303 263 268 238 146 136 173 150 116 95 170 176 186 234 238 130 140 168 191 211 226 244 253 226 204 243 268 214 248 258 158 161 188 196 227 234 230 241 231 220 239 266 79 174 215 248 247 241 242 237 258 282 165 196 243 277 275 252 219 192 200 214 215 219 223 224 223 218 216 209 206 205
335 321 282 283 273 270 300 322 304 305 22 23 349 331 340 335 257 237 261 259 105 136 189 114 91 256 226 176 213 251 354 134 185 168 162 200 217 223 238 245 247 228 198 213 242 159 154 186 191 205 228 233 233 240 215 209 235 252 69 247 239 244 241 235 239 242 254 265 239 221 225 247 260 253 209 183 207 223 213 210 211 212 215 211 211 209 207 202
338 327 246 327 280 268 289 296 302 341 16 348 330 336 334 294 248 243 253 281 120 178 160 109 146 214 214 191 201 229 223 209 212 128 148 195 222 242 258 265 274 257 189 226 245 221 160 193 205 215 226 233 235 239 178 197 233 278 270 257 251 245 240 237 244 251 253 253 258 247 220 226 258 244 199 193 220 232 216 209 207 207 212 209 207 210 211 201
352 56 114 94 68 313 246 225 274 332 338 321 324 325 302 258 241 246 242 245 160 161 156 183 182 191 228 220 193 192 213 211 161 154 180 193 202 225 258 271 272 262 222 229 248 256 199 166 217 232 234 249 254 251 186 221 242 260 245 245 235 230 231 235 242 253 262 248 245 246 226 221 259 264 239 207 200 222 228 212 200 199 207 205 202 206 208 202
34 81 103 117 82 288 263 217 44 343 319 314 316 299 270 244 246 266 270 176 214 159 170 198 177 195 250 257 207 185 202 198 174 183 196 190 188 205 224 221 227 245 234 224 232 236 213 191 213 225 229 247 257 226 214 228 237 231 237 244 236 227 225 238 240 239 253 249 244 246 228 218 239 258 281 263 164 195 240 231 204 194 202 204 202 207 212 210
68 81 85 98 96 329 307 339 357 324 301 305 307 278 256 260 256 277 57 177 226 155 162 196 173 238 277 281 244 216 214 197 187 203 215 213 200 201 214 209 205 223 230 232 221 215 215 216 215 210 211 223 234 228 210 209 221 230 235 237 243 243 230 239 242 235 241 243 248 249 219 217 238 253 283 300 165 189 230 244 215 192 200 207 206 209 214 220
83 86 74 65 63 10 324 328 315 304 304 302 291 259 264 282 277 345 36 223 166 59 329 267 268 281 277 259 238 223 239 212 192 214 227 240 238 216 214 221 242 262 261 272 251 212 223 224 211 207 200 203 224 237 219 205 210 225 235 234 240 252 250 249 246 242 248 248 251 249 222 230 246 255 265 251 207 195 213 232 220 196 203 211 216 218 212 216
92 87 67 50 38 12 345 335 311 314 309 289 273 258 265 275 287 353 277 273 65 358 268 265 275 273 258 256 260 227 240 222 208 231 225 233 250 243 233 236 247 264 269 264 260 256 263 251 209 205 200 197 216 233 248 255 235 222 236 245 245 249 256 264 270 269 274 289 290 238 226 237 242 250 261 244 222 200 202 214 210 203 213 217 225 233 225 217
86 75 64 48 29 11 2 357 337 327 310 282 273 268 262 271 295 322 304 359 33 293 285 284 270 266 247 234 218 243 266 234 211 239 245 237 243 245 244 241 231 239 257 257 255 260 268 273 221 198 201 202 215 227 243 259 257 235 235 245 247 254 259 265 277 284 291 301 276 238 228 236 253 266 258 241 227 210 207 210 206 204 209 214 220 229 233 228
81 74 70 53 30 7 350 347 332 319 304 282 275 271 278 321 334 348 357 344 329 321 314 286 254 254 252 222 190 197 217 240 233 240 250 243 245 249 238 223 224 238 254 263 267 259 261 273 242 185 200 222 234 242 237 241 261 263 241 243 253 267 273 270 268 269 271 270 266 255 247 243 255 264 250 233 229 226 222 214 210 209 204 208 215 219 227 230
261 169 93 39 25 2 343 339 320 302 285 278 280 290 325 353 346 346 359 332 311 312 302 290 255 253 274 268 239 208 177 233 247 234 250 247 240 246 227 185 241 259 268 273 272 267 268 280 268 235 236 238 246 262 256 248 257 262 256 265 277 271 267 269 268 265 259 260 263 256 254 251 250 261 256 240 231 232 236 227 217 214 209 211 214 215 223 227
275 214 117 33 12 351 338 329 308 291 277 273 261 259 301 323 33 4 354 332 303 290 286 286 302 294 283 283 277 260 232 272 258 237 258 260 228 220 223 204 203 256 290 288 269 259 264 276 268 253 255 253 237 252 259 250 245 251 265 279 280 268 258 252 256 262 262 264 266 257 255 256 252 255 260 257 250 239 237 235 226 219 215 216 216 215 218 218
269 237 153 24 3 342 332 318 296 279 269 274 273 168 289 308 52 17 343 328 292 284 292 288 289 285 279 286 294 293 286 285 290 283 271 266 237 199 247 259 199 215 273 282 280 281 269 274 273 263 266 265 239 236 253 251 239 242 257 264 260 262 266 262 258 258 260 264 268 265 263 259 259 261 256 261 271 262 239 232 236 234 224 219 219 217 213 208
267 250 86 21 355 332 318 296 276 268 268 287 308 333 330 314 71 66 347 333 301 282 291 302 305 286 281 291 291 289 285 281 286 284 279 284 250 189 182 326 259 247 278 280 277 280 266 265 272 276 274 264 243 235 252 265 260 246 247 252 250 251 258 261 258 254 256 263 265 266 267 263 263 270 262 259 273 276 257 233 232 239 234 226 221 218 217 206
270 262 54 20 352 332 305 276 258 287 289 287 292 297 359 359 308 261 174 280 285 276 280 297 296 286 291 295 284 282 287 282 275 273 272 268 251 220 55 1 291 281 304 284 272 279 274 265 271 278 275 261 255 255 262 272 278 273 268 266 263 261 261 261 259 252 251 261 267 268 272 269 267 279 278 269 268 275 275 261 246 238 232 232 226 218 221 213
281 305 43 13 346 327 299 275 250 304 286 325 344 306 8 350 288 288 267 242 259 259 254 271 281 283 284 279 283 293 288 282 278 276 272 263 266 325 63 33 330 304 302 288 281 17 352 277 270 272 267 265 268 270 271 273 274 274 273 271 271 271 268 266 267 267 267 267 266 268 271 270 276 289 288 286 285 277 273 273 272 254 228 229 229 218 217 216
331 9 59 15 346 316 290 282 272 268 279 20 347 305 306 282 273 283 287 269 274 273 264 274 280 278 274 276 289 289 284 287 278 272 273 269 270 74 79 26 353 304 283 277 274 31 14 268 262 269 267 267 268 265 263 262 263 264 257 255 263 268 273 276 276 278 281 273 266 266 265 266 278 284 284 303 310 290 276 278 284 275 242 226 229 228 221 217
356 345 108 27 356 314 286 304 314 306 336 5 316 292 260 262 273 287 293 287 294 292 284 285 281 267 268 278 278 275 279 283 264 262 274 271 251 86 42 352 350 294 292 320 335 2 329 273 271 279 278 274 265 257 251 248 250 262 267 270 279 281 284 289 286 276 269 263 262 262 262 268 282 288 295 319 321 299 293 296 292 282 264 236 225 226 229 225
316 284 166 26 6 338 317 353 340 319 321 316 303 296 279 254 229 276 295 290 279 288 289 282 281 275 272 274 267 266 270 263 257 265 277 275 254 163 178 154 281 278 326 39 8 315 290 280 281 275 272 274 269 266 279 289 292 296 291 284 279 275 276 282 283 272 263 262 262 261 265 275 282 286 293 303 302 295 297 302 303 300 293 276 248 225 224 230
328 330 336 350 359 348 16 33 340 307 317 319 303 296 285 274 223 166 261 277 267 274 280 275 278 276 269 270 268 267 264 257 256 262 265 268 265 254 223 140 270 278 40 67 331 290 279 273 268 264 264 269 273 281 300 311 303 291 286 280 275 273 272 274 271 264 268 274 270 267 274 280 282 285 288 289 288 289 291 292 294 298 303 296 280 261 241 229
338 332 350 342 319 305 340 44 342 318 330 325 302 305 293 284 278 183 179 261 273 274 274 271 271 266 265 271 272 273 273 267 261 261 265 269 276 284 287 275 270 270 160 171 255 256 261 261 256 256 260 263 270 279 287 289 282 280 281 278 275 274 271 268 265 267 276 280 274 275 282 283 283 286 287 286 287 287 286 285 283 283 293 302 298 293 277 249
0 350 30 347 298 304 332 345 346 325 296 269 273 293 285 278 278 259 227 258 282 272 263 260 262 261 262 269 273 274 274 273 268 266 268 269 272 278 273 267 270 257 217 235 248 239 249 261 259 260 262 264 269 274 277 279 277 276 276 273 271 269 267 265 264 268 273 272 272 281 285 282 280 282 282 282 284 285 286 287 283 278 278 278 280 290 292 277
12 335 90 168 282 305 329 325 320 301 282 273 277 280 275 273 276 273 268 277 278 273 269 270 273 270 264 267 275 277 273 273 273 271 273 277 279 281 277 278 283 270 247 248 247 238 250 259 259 265 269 270 271 274 279 279 276 273 271 269 267 266 266 267 266 266 266 266 269 276 278 277 276 276 278 279 282 284 284 282 277 270 264 260 261 263 267 283
4 346 4 289 271 275 285 284 283 280 269 227 233 264 269 274 281 280 274 277 279 278 271 267 272 275 277 279 274 269 273 281 279 275 280 282 277 272 270 273 279 272 259 254 249 244 252 258 258 266 273 271 270 273 275 273 272 272 268 264 264 267 268 267 266 265 265 266 268 269 271 274 271 271 274 279 281 280 277 274 270 268 264 255 250 253 249 250
353 351 334 302 291 291 268 264 264 279 278 232 224 281 285 277 287 297 298 289 277 271 276 283 287 285 282 281 272 271 297 316 298 283 279 274 267 267 273 276 280 278 267 261 259 252 253 264 267 267 268 268 267 267 267 270 272 270 264 261 263 266 264 263 262 262 261 263 267 266 265 265 267 270 273 276 277 275 273 273 268 264 264 256 246 247 245 240
345 329 303 295 296 291 273 274 264 265 285 347 336 310 295 286 295 306 300 289 269 268 286 299 297 290 279 276 275 290 332 336 306 288 279 272 271 271 272 271 269 269 265 264 264 257 255 262 265 263 264 269 272 272 275 281 276 264 259 258 257 255 256 259 260 259 257 257 261 263 262 263 269 274 275 275 277 276 274 275 275 271 268 261 253 247 242 241